Simultaneous Nadir Overpasses (SNOs) Predictions

Prediction of SNOs between METOP-A and NOAA-19 Satellite Orbit:

Table of predicted SNOs for the next 14.0 days since TLE Epoch: 8/31/2012
Index Date (METOP-A) Time (METOP-A) METOP-A Lat,Lon Date (NOAA-19) Time (NOAA-19) NOAA-19 Lat,Lon Distance(km) Time Diff (sec)
1 09/02/2012 12:06:07 73.14, -8.82 09/02/2012 12:04:56 73.15, -8.76 2.07 71
2 09/02/2012 12:56:48 -73.17, 158.57 09/02/2012 12:55:52 -73.15, 158.51 3.14 56
3 09/02/2012 13:47:29 73.12, -34.20 09/02/2012 13:47:00 73.10, -34.16 3.00 29
4 09/02/2012 14:38:11 -73.10, 133.08 09/02/2012 14:37:56 -73.10, 133.11 1.30 15
5 09/02/2012 15:28:51 73.10, -59.58 09/02/2012 15:29:05 73.09, -59.67 3.04 14
6 09/02/2012 16:19:33 -73.08, 107.70 09/02/2012 16:20:01 -73.09, 107.61 3.10 28
7 09/02/2012 17:10:14 73.03, -85.07 09/02/2012 17:11:09 73.04, -85.07 0.52 55
8 09/02/2012 18:00:56 -73.01, 82.21 09/02/2012 18:02:05 -73.03, 82.21 2.36 69
9 09/12/2012 09:27:00 -73.66,-147.93 09/12/2012 09:25:51 -73.69,-150.16 69.79 69
10 09/12/2012 10:17:50 73.15, 18.25 09/12/2012 10:16:48 73.14, 18.32 2.21 62
11 09/12/2012 11:08:32 -73.14,-174.44 09/12/2012 11:07:45 -73.14,-174.42 0.85 47
12 09/12/2012 11:59:12 73.13, -7.13 09/12/2012 11:58:53 73.14, -7.19 2.20 19
13 09/12/2012 12:49:54 -73.12, 160.18 09/12/2012 12:49:49 -73.09, 160.19 3.67 5
14 09/12/2012 13:40:35 73.06, -32.62 09/12/2012 13:40:57 73.08, -32.59 2.93 22
15 09/12/2012 14:31:17 -73.05, 134.69 09/12/2012 14:31:54 -73.08, 134.68 3.40
